BEL898 EGLL-ENBR

Flight info

Callsign BEL898
Flight time 1h 38m
Altitude 37000
Route BPK Q295 MATCH P144 DIGSU P5 BUZDE DCT ALOTI DCT ALUVA
Aircraft A320/M-SDE3FGHIRWY/LB1

Departure

Time 2026-05-05 12:46
Airport London Heathrow Airport (EGLL)

Arrival

Time 2026-05-05 14:24
Airport Bergen Airport, Flesland (ENBR)
Time Latitude Longitude Altitude Speed Heading
2026-05-05 11:56 51.47361 -0.48586 86 ft 0 kts 269°
2026-05-05 12:35 51.47361 -0.48549 86 ft 4 kts 269°
2026-05-05 12:36 51.47361 -0.48514 86 ft 4 kts 262°
2026-05-05 12:36 51.47370 -0.48480 89 ft 4 kts 207°
2026-05-05 12:36 51.47393 -0.48474 87 ft 4 kts 179°
2026-05-05 12:36 51.47400 -0.48474 86 ft 0 kts 179°
2026-05-05 12:39 51.47395 -0.48474 86 ft 2 kts 179°
2026-05-05 12:39 51.47385 -0.48474 88 ft 1 kts 179°
2026-05-05 12:40 51.47364 -0.48474 88 ft 7 kts 179°
2026-05-05 12:40 51.47317 -0.48473 86 ft 6 kts 179°
2026-05-05 12:40 51.47276 -0.48473 86 ft 6 kts 180°
2026-05-05 12:40 51.47238 -0.48473 86 ft 5 kts 180°
2026-05-05 12:41 51.47184 -0.48472 88 ft 8 kts 180°
2026-05-05 12:41 51.47128 -0.48472 88 ft 8 kts 180°
2026-05-05 12:41 51.47076 -0.48471 86 ft 7 kts 179°
2026-05-05 12:41 51.47029 -0.48471 88 ft 6 kts 179°
2026-05-05 12:42 51.46986 -0.48470 89 ft 6 kts 179°
2026-05-05 12:42 51.46947 -0.48470 87 ft 5 kts 180°
2026-05-05 12:42 51.46911 -0.48470 89 ft 5 kts 179°
2026-05-05 12:42 51.46878 -0.48470 87 ft 6 kts 179°
2026-05-05 12:43 51.46814 -0.48469 86 ft 11 kts 180°
2026-05-05 12:43 51.46743 -0.48469 86 ft 10 kts 180°
2026-05-05 12:43 51.46678 -0.48468 86 ft 9 kts 179°
2026-05-05 12:43 51.46619 -0.48467 86 ft 8 kts 180°
2026-05-05 12:44 51.46605 -0.48467 86 ft 0 kts 180°
2026-05-05 12:44 51.46582 -0.48467 87 ft 6 kts 179°
2026-05-05 12:44 51.46542 -0.48467 87 ft 5 kts 179°
2026-05-05 12:45 51.46507 -0.48457 88 ft 5 kts 158°
2026-05-05 12:45 51.46484 -0.48417 88 ft 5 kts 115°
2026-05-05 12:45 51.46480 -0.48368 87 ft 4 kts 92°
2026-05-05 12:45 51.46481 -0.48069 87 ft 64 kts 90°
2026-05-05 12:46 51.46487 -0.46967 91 ft 130 kts 87°
2026-05-05 12:46 51.46496 -0.45361 469 ft 144 kts 86°
2026-05-05 12:46 51.46509 -0.43730 1143 ft 149 kts 84°
2026-05-05 12:46 51.46551 -0.42071 1906 ft 149 kts 77°
2026-05-05 12:47 51.46995 -0.40508 2357 ft 165 kts 48°
2026-05-05 12:47 51.47800 -0.39016 2712 ft 189 kts 47°
2026-05-05 12:47 51.48708 -0.37296 3174 ft 214 kts 48°
2026-05-05 12:47 51.49717 -0.35366 3671 ft 238 kts 49°
2026-05-05 12:48 51.50812 -0.33251 4463 ft 251 kts 51°
2026-05-05 12:48 51.51898 -0.31033 5454 ft 255 kts 52°
2026-05-05 12:48 51.52986 -0.28731 6356 ft 263 kts 53°
2026-05-05 12:48 51.54081 -0.26383 7204 ft 269 kts 53°
2026-05-05 12:49 51.55217 -0.23944 7764 ft 275 kts 53°
2026-05-05 12:49 51.56367 -0.21474 7923 ft 277 kts 53°
2026-05-05 12:49 51.57520 -0.19004 7987 ft 276 kts 52°
2026-05-05 12:49 51.58672 -0.16531 7997 ft 276 kts 52°
2026-05-05 12:50 51.59789 -0.14133 7995 ft 277 kts 53°
2026-05-05 12:50 51.60941 -0.11660 7995 ft 276 kts 52°
2026-05-05 12:50 51.62097 -0.09184 7995 ft 276 kts 52°
2026-05-05 12:50 51.63250 -0.06715 7998 ft 276 kts 53°
2026-05-05 12:51 51.64403 -0.04241 7997 ft 276 kts 52°
2026-05-05 12:51 51.65554 -0.01767 7998 ft 276 kts 53°
2026-05-05 12:51 51.66707 0.00715 8024 ft 279 kts 53°
2026-05-05 12:51 51.67885 0.03254 8886 ft 283 kts 52°
2026-05-05 12:52 51.69064 0.05803 9888 ft 286 kts 53°
2026-05-05 12:52 51.70285 0.08447 10403 ft 305 kts 53°
2026-05-05 12:52 51.71594 0.11274 10896 ft 322 kts 53°
2026-05-05 12:52 51.72947 0.14201 11671 ft 328 kts 53°
2026-05-05 12:53 51.74314 0.17163 12527 ft 331 kts 53°
2026-05-05 12:53 51.75695 0.20152 13382 ft 334 kts 53°
2026-05-05 12:53 51.77092 0.23178 14156 ft 338 kts 53°
2026-05-05 12:53 51.78595 0.26057 14865 ft 342 kts 45°
2026-05-05 12:54 51.82064 0.31474 16200 ft 353 kts 44°
2026-05-05 12:54 51.83850 0.34255 16827 ft 359 kts 44°
2026-05-05 12:54 51.85660 0.37081 17499 ft 364 kts 44°
2026-05-05 12:55 51.87489 0.39948 18178 ft 368 kts 44°
2026-05-05 12:55 51.89337 0.42848 18782 ft 372 kts 44°
2026-05-05 12:55 51.91206 0.45787 19343 ft 377 kts 44°
2026-05-05 12:55 51.93097 0.48768 19947 ft 380 kts 44°
2026-05-05 12:56 51.95000 0.51770 20555 ft 384 kts 45°
2026-05-05 12:56 51.96899 0.54768 21161 ft 387 kts 45°
2026-05-05 12:56 51.98862 0.57872 21726 ft 391 kts 45°
2026-05-05 12:56 52.00854 0.60823 22335 ft 395 kts 38°
2026-05-05 12:57 52.03169 0.63264 22901 ft 400 kts 28°
2026-05-05 12:57 52.05750 0.64996 23495 ft 404 kts 16°
2026-05-05 12:57 52.08481 0.66226 23982 ft 407 kts 15°
2026-05-05 12:57 52.11227 0.67459 24445 ft 411 kts 15°
2026-05-05 12:58 52.13999 0.68719 24901 ft 415 kts 15°
2026-05-05 12:58 52.16790 0.69994 25344 ft 419 kts 15°
2026-05-05 12:58 52.19609 0.71289 25777 ft 422 kts 15°
2026-05-05 12:58 52.22458 0.72604 26204 ft 426 kts 15°
2026-05-05 12:59 52.25321 0.73924 26620 ft 430 kts 15°
2026-05-05 12:59 52.28209 0.75247 27045 ft 433 kts 15°
2026-05-05 12:59 52.31130 0.76586 27406 ft 438 kts 14°
2026-05-05 13:00 52.37051 0.79269 28173 ft 445 kts 14°
2026-05-05 13:00 52.40056 0.80542 28562 ft 448 kts 13°
2026-05-05 13:01 52.49228 0.84243 29688 ft 457 kts 13°
2026-05-05 13:01 52.52323 0.85502 30056 ft 460 kts 12°
2026-05-05 13:01 52.55438 0.86783 30384 ft 462 kts 12°
2026-05-05 13:01 52.58557 0.88079 30722 ft 463 kts 12°
2026-05-05 13:02 52.61691 0.89393 31038 ft 465 kts 13°
2026-05-05 13:02 52.64829 0.90714 31352 ft 466 kts 13°
2026-05-05 13:02 52.67975 0.92041 31658 ft 468 kts 13°
2026-05-05 13:02 52.71132 0.93371 31950 ft 469 kts 13°
2026-05-05 13:03 52.74301 0.94705 32300 ft 469 kts 13°
2026-05-05 13:03 52.77456 0.96034 32740 ft 466 kts 13°
2026-05-05 13:03 52.80582 0.97351 33279 ft 462 kts 13°
2026-05-05 13:03 52.83687 0.98658 33759 ft 459 kts 13°
2026-05-05 13:04 52.86771 0.99957 34167 ft 457 kts 13°
2026-05-05 13:04 52.89804 1.01236 34492 ft 456 kts 13°
2026-05-05 13:04 52.92884 1.02535 34755 ft 457 kts 13°
2026-05-05 13:04 52.95968 1.03838 35025 ft 457 kts 13°
2026-05-05 13:05 52.99051 1.05142 35305 ft 457 kts 13°
2026-05-05 13:05 53.02128 1.06448 35620 ft 456 kts 13°
2026-05-05 13:05 53.05195 1.07756 35954 ft 454 kts 13°
2026-05-05 13:05 53.08253 1.09062 36249 ft 453 kts 13°
2026-05-05 13:06 53.11304 1.10366 36513 ft 453 kts 13°
2026-05-05 13:06 53.14360 1.11672 36759 ft 453 kts 13°
2026-05-05 13:06 53.17412 1.12979 36959 ft 454 kts 13°
2026-05-05 13:06 53.20457 1.14288 37010 ft 450 kts 13°
2026-05-05 13:07 53.26505 1.16895 37010 ft 446 kts 13°
2026-05-05 13:07 53.32509 1.19479 37009 ft 445 kts 13°
2026-05-05 13:08 53.38500 1.22069 37006 ft 444 kts 13°
2026-05-05 13:08 53.44444 1.24655 37007 ft 444 kts 13°
2026-05-05 13:09 53.50437 1.27260 37006 ft 444 kts 13°
2026-05-05 13:09 53.56423 1.29875 37008 ft 444 kts 13°
2026-05-05 13:10 53.62402 1.32500 37002 ft 444 kts 13°
2026-05-05 13:10 53.68391 1.35129 37002 ft 444 kts 13°
2026-05-05 13:11 53.74367 1.37771 37017 ft 444 kts 13°
2026-05-05 13:11 53.80331 1.40478 37013 ft 444 kts 14°
2026-05-05 13:12 53.86279 1.43360 37008 ft 444 kts 14°
2026-05-05 13:12 53.92213 1.46278 37001 ft 444 kts 14°
2026-05-05 13:13 53.98159 1.49181 36999 ft 444 kts 14°
2026-05-05 13:13 54.04062 1.52045 37011 ft 444 kts 14°
2026-05-05 13:14 54.10006 1.54935 36992 ft 444 kts 14°
2026-05-05 13:14 54.15947 1.57825 36990 ft 444 kts 14°
2026-05-05 13:15 54.21894 1.60734 37002 ft 445 kts 14°
2026-05-05 13:15 54.27847 1.63672 37002 ft 445 kts 13°
2026-05-05 13:16 54.33804 1.66616 36995 ft 446 kts 13°
2026-05-05 13:16 54.39767 1.69570 36995 ft 446 kts 14°
2026-05-05 13:17 54.45735 1.72525 36989 ft 446 kts 13°
2026-05-05 13:17 54.51700 1.75496 37001 ft 447 kts 13°
2026-05-05 13:18 54.57675 1.78492 37001 ft 447 kts 13°
2026-05-05 13:18 54.63643 1.81487 37000 ft 447 kts 13°
2026-05-05 13:19 54.69613 1.84476 37000 ft 447 kts 13°
2026-05-05 13:19 54.75590 1.87474 37013 ft 447 kts 13°
2026-05-05 13:20 54.81564 1.90500 37011 ft 447 kts 13°
2026-05-05 13:20 54.86534 1.93029 37006 ft 448 kts 13°
2026-05-05 13:21 54.93480 1.96572 36998 ft 447 kts 13°
2026-05-05 13:21 54.98491 1.99125 36996 ft 447 kts 13°
2026-05-05 13:22 55.04469 2.02177 37001 ft 447 kts 13°
2026-05-05 13:22 55.10402 2.05215 36993 ft 447 kts 13°
2026-05-05 13:23 55.16373 2.08283 36984 ft 447 kts 13°
2026-05-05 13:23 55.22352 2.11369 36984 ft 448 kts 13°
2026-05-05 13:24 55.28333 2.14482 37009 ft 448 kts 13°
2026-05-05 13:24 55.34316 2.17598 37003 ft 448 kts 13°
2026-05-05 13:25 55.40302 2.20719 36997 ft 449 kts 13°
2026-05-05 13:25 55.46288 2.23842 36988 ft 449 kts 13°
2026-05-05 13:26 55.52280 2.26990 37011 ft 449 kts 13°
2026-05-05 13:26 55.58266 2.30146 37006 ft 449 kts 12°
2026-05-05 13:27 55.64267 2.33294 37000 ft 449 kts 12°
2026-05-05 13:27 55.70258 2.36463 36998 ft 449 kts 13°
2026-05-05 13:28 55.76248 2.39642 37027 ft 449 kts 12°
2026-05-05 13:28 55.82237 2.42834 37014 ft 449 kts 12°
2026-05-05 13:29 55.88227 2.46050 37011 ft 449 kts 12°
2026-05-05 13:29 55.94176 2.49246 37004 ft 449 kts 12°
2026-05-05 13:30 56.00164 2.52462 37002 ft 449 kts 12°
2026-05-05 13:30 56.06153 2.55693 36996 ft 449 kts 12°
2026-05-05 13:31 56.12136 2.58940 36992 ft 449 kts 12°
2026-05-05 13:31 56.18119 2.62190 36991 ft 449 kts 12°
2026-05-05 13:32 56.24096 2.65446 36990 ft 449 kts 12°
2026-05-05 13:32 56.30072 2.68713 37021 ft 449 kts 12°
2026-05-05 13:33 56.36057 2.72004 37014 ft 449 kts 12°
2026-05-05 13:33 56.42038 2.75302 37012 ft 449 kts 12°
2026-05-05 13:34 56.48015 2.78597 37008 ft 449 kts 12°
2026-05-05 13:34 56.53958 2.81892 37009 ft 449 kts 12°
2026-05-05 13:35 56.59940 2.85208 37031 ft 449 kts 12°
2026-05-05 13:35 56.65915 2.88539 37010 ft 449 kts 12°
2026-05-05 13:36 56.71892 2.91900 37026 ft 449 kts 12°
2026-05-05 13:36 56.77870 2.95266 37016 ft 449 kts 12°
2026-05-05 13:37 56.83848 2.98621 37045 ft 449 kts 12°
2026-05-05 13:37 56.89829 3.01991 37040 ft 450 kts 12°
2026-05-05 13:38 56.95808 3.05385 37043 ft 450 kts 12°
2026-05-05 13:38 57.01786 3.08792 37051 ft 450 kts 12°
2026-05-05 13:39 57.07730 3.12193 37081 ft 450 kts 12°
2026-05-05 13:39 57.13706 3.15628 37065 ft 450 kts 12°
2026-05-05 13:40 57.19687 3.19069 37054 ft 450 kts 12°
2026-05-05 13:40 57.25666 3.22505 37050 ft 450 kts 12°
2026-05-05 13:41 57.31647 3.25962 37047 ft 450 kts 12°
2026-05-05 13:41 57.37630 3.29434 37086 ft 451 kts 12°
2026-05-05 13:42 57.43616 3.32922 37075 ft 451 kts 12°
2026-05-05 13:42 57.49597 3.36425 37067 ft 451 kts 12°
2026-05-05 13:43 57.55583 3.39942 37065 ft 451 kts 12°
2026-05-05 13:43 57.61565 3.43469 37095 ft 451 kts 11°
2026-05-05 13:44 57.67545 3.47011 37080 ft 451 kts 12°
2026-05-05 13:44 57.73522 3.50555 37074 ft 451 kts 12°
2026-05-05 13:45 57.79503 3.54115 37068 ft 451 kts 11°
2026-05-05 13:45 57.85477 3.57677 37064 ft 451 kts 12°
2026-05-05 13:46 57.91406 3.61423 37091 ft 455 kts 18°
2026-05-05 13:46 57.97160 3.66479 37071 ft 456 kts 19°
2026-05-05 13:47 58.02913 3.71552 37058 ft 457 kts 19°
2026-05-05 13:47 58.08679 3.76630 37052 ft 457 kts 19°
2026-05-05 13:48 58.14451 3.81717 37095 ft 458 kts 19°
2026-05-05 13:48 58.20221 3.86851 37078 ft 458 kts 19°
2026-05-05 13:49 58.25988 3.92003 37066 ft 458 kts 19°
2026-05-05 13:49 58.31760 3.97182 37060 ft 459 kts 19°
2026-05-05 13:50 58.37527 4.02373 37058 ft 459 kts 19°
2026-05-05 13:50 58.43271 4.07548 37095 ft 459 kts 19°
2026-05-05 13:51 58.49049 4.12782 37082 ft 459 kts 19°
2026-05-05 13:51 58.54815 4.18024 37066 ft 459 kts 19°
2026-05-05 13:52 58.60572 4.23285 37059 ft 459 kts 19°
2026-05-05 13:52 58.66340 4.28562 37051 ft 459 kts 19°
2026-05-05 13:53 58.72101 4.33857 37053 ft 459 kts 19°
2026-05-05 13:53 58.77821 4.39141 37048 ft 459 kts 20°
2026-05-05 13:54 58.83582 4.44480 37041 ft 459 kts 20°
2026-05-05 13:54 58.89344 4.49840 37043 ft 460 kts 20°
2026-05-05 13:55 58.95123 4.55227 36648 ft 463 kts 19°
2026-05-05 13:55 58.97996 4.57919 35960 ft 453 kts 19°
2026-05-05 13:55 59.00786 4.60552 35415 ft 440 kts 18°
2026-05-05 13:56 59.03497 4.63119 34856 ft 429 kts 18°
2026-05-05 13:56 59.06187 4.65655 34295 ft 433 kts 17°
2026-05-05 13:56 59.08909 4.68200 33654 ft 435 kts 17°
2026-05-05 13:56 59.11629 4.70752 33065 ft 433 kts 17°
2026-05-05 13:57 59.14335 4.73302 32478 ft 432 kts 17°
2026-05-05 13:57 59.17036 4.75857 31899 ft 430 kts 17°
2026-05-05 13:57 59.19726 4.78416 31322 ft 429 kts 17°
2026-05-05 13:57 59.22401 4.80963 30757 ft 428 kts 17°
2026-05-05 13:58 59.25081 4.83518 30192 ft 429 kts 16°
2026-05-05 13:58 59.27758 4.86067 29568 ft 427 kts 16°
2026-05-05 13:58 59.30420 4.88613 29019 ft 423 kts 16°
2026-05-05 13:58 59.33052 4.91142 28475 ft 420 kts 16°
2026-05-05 13:59 59.38340 4.95414 27465 ft 396 kts
2026-05-05 13:59 59.40999 4.96263 27000 ft 379 kts 352°
2026-05-05 14:00 59.46079 4.95823 26138 ft 358 kts 343°
2026-05-05 14:00 59.47717 4.95551 25865 ft 356 kts 343°
2026-05-05 14:00 59.50962 4.95022 25390 ft 350 kts 343°
2026-05-05 14:00 59.53413 4.94626 24897 ft 348 kts 342°
2026-05-05 14:01 59.55784 4.94241 24477 ft 344 kts 342°
2026-05-05 14:01 59.58159 4.93855 24058 ft 340 kts 342°
2026-05-05 14:01 59.60508 4.93471 23629 ft 337 kts 342°
2026-05-05 14:01 59.62833 4.93090 23159 ft 333 kts 342°
2026-05-05 14:02 59.65130 4.92713 22690 ft 329 kts 343°
2026-05-05 14:02 59.67398 4.92337 22239 ft 325 kts 343°
2026-05-05 14:02 59.69644 4.91961 21791 ft 322 kts 343°
2026-05-05 14:02 59.71870 4.91592 21342 ft 320 kts 343°
2026-05-05 14:03 59.74085 4.91229 20895 ft 318 kts 344°
2026-05-05 14:03 59.76282 4.90866 20450 ft 316 kts 344°
2026-05-05 14:03 59.78465 4.90491 20005 ft 313 kts 344°
2026-05-05 14:03 59.80617 4.89983 19602 ft 310 kts 343°
2026-05-05 14:04 59.82753 4.89372 19141 ft 309 kts 343°
2026-05-05 14:04 59.84879 4.88721 18706 ft 308 kts 343°
2026-05-05 14:04 59.86991 4.88070 18275 ft 307 kts 344°
2026-05-05 14:04 59.89102 4.87438 17806 ft 306 kts 344°
2026-05-05 14:05 59.90488 4.87030 17516 ft 304 kts 345°
2026-05-05 14:05 59.92575 4.86425 17103 ft 301 kts 345°
2026-05-05 14:05 59.94640 4.85832 16693 ft 299 kts 345°
2026-05-05 14:05 59.96691 4.85246 16287 ft 297 kts 346°
2026-05-05 14:06 59.98728 4.84666 15881 ft 295 kts 346°
2026-05-05 14:06 60.00763 4.84088 15489 ft 293 kts 346°
2026-05-05 14:06 60.02774 4.83511 15085 ft 292 kts 346°
2026-05-05 14:06 60.04780 4.82931 14688 ft 291 kts 346°
2026-05-05 14:07 60.06785 4.82352 14286 ft 290 kts 347°
2026-05-05 14:07 60.08763 4.81779 13916 ft 290 kts 347°
2026-05-05 14:07 60.10758 4.81201 13461 ft 290 kts 347°
2026-05-05 14:07 60.12745 4.80629 13053 ft 287 kts 347°
2026-05-05 14:08 60.14720 4.80060 12650 ft 285 kts 347°
2026-05-05 14:08 60.16676 4.79497 12256 ft 283 kts 348°
2026-05-05 14:08 60.18624 4.78937 11845 ft 281 kts 348°
2026-05-05 14:08 60.20554 4.78378 11447 ft 280 kts 348°
2026-05-05 14:09 60.22480 4.77815 11045 ft 278 kts 348°
2026-05-05 14:09 60.24396 4.77254 10641 ft 277 kts 348°
2026-05-05 14:09 60.26306 4.76696 10240 ft 276 kts 348°
2026-05-05 14:09 60.28190 4.76149 10101 ft 273 kts 348°
2026-05-05 14:10 60.30071 4.75600 10010 ft 273 kts 348°
2026-05-05 14:10 60.31963 4.75043 9509 ft 279 kts 348°
2026-05-05 14:10 60.33875 4.74480 9118 ft 275 kts 348°
2026-05-05 14:10 60.35757 4.73926 8821 ft 269 kts 348°
2026-05-05 14:11 60.37568 4.73397 8676 ft 257 kts 348°
2026-05-05 14:11 60.39299 4.72895 8525 ft 245 kts 348°
2026-05-05 14:11 60.40928 4.72214 8011 ft 235 kts 337°
2026-05-05 14:11 60.42427 4.71106 7792 ft 227 kts 337°
2026-05-05 14:12 60.43915 4.70021 7657 ft 228 kts 337°
2026-05-05 14:12 60.45416 4.68985 7521 ft 228 kts 343°
2026-05-05 14:12 60.46997 4.68604 7393 ft 231 kts 356°
2026-05-05 14:12 60.48586 4.68630 7271 ft 230 kts 356°
2026-05-05 14:13 60.50152 4.68649 7138 ft 219 kts 356°
2026-05-05 14:13 60.51640 4.68844 7045 ft 212 kts
2026-05-05 14:13 60.53055 4.69714 7012 ft 213 kts 16°
2026-05-05 14:13 60.54452 4.70762 6942 ft 214 kts 15°
2026-05-05 14:14 60.55849 4.71806 6811 ft 219 kts 15°
2026-05-05 14:14 60.57282 4.73193 6683 ft 236 kts 30°
2026-05-05 14:14 60.58578 4.75299 6555 ft 241 kts 37°
2026-05-05 14:14 60.59864 4.77521 6426 ft 243 kts 36°
2026-05-05 14:15 60.61125 4.79817 6290 ft 245 kts 44°
2026-05-05 14:15 60.62098 4.82675 6162 ft 247 kts 59°
2026-05-05 14:15 60.62770 4.85898 6010 ft 249 kts 77°
2026-05-05 14:15 60.62742 4.89407 5884 ft 251 kts 105°
2026-05-05 14:16 60.61958 4.92499 5733 ft 249 kts 133°
2026-05-05 14:16 60.60593 4.94563 5539 ft 244 kts 161°
2026-05-05 14:16 60.58987 4.95601 5331 ft 243 kts 167°
2026-05-05 14:16 60.57366 4.96570 5131 ft 242 kts 167°
2026-05-05 14:17 60.55769 4.97533 4910 ft 233 kts 167°
2026-05-05 14:17 60.54269 4.98441 4722 ft 219 kts 167°
2026-05-05 14:17 60.52855 4.99296 4540 ft 205 kts 167°
2026-05-05 14:17 60.51533 5.00095 4401 ft 189 kts 167°
2026-05-05 14:18 60.50323 5.00828 4201 ft 173 kts 168°
2026-05-05 14:18 60.49227 5.01524 4049 ft 159 kts 165°
2026-05-05 14:18 60.48258 5.02516 3825 ft 155 kts 150°
2026-05-05 14:18 60.47461 5.03960 3596 ft 153 kts 132°
2026-05-05 14:19 60.46885 5.05774 3365 ft 153 kts 119°
2026-05-05 14:19 60.46412 5.07687 3215 ft 152 kts 117°
2026-05-05 14:19 60.45955 5.09586 3004 ft 148 kts 117°
2026-05-05 14:19 60.45498 5.11474 2769 ft 150 kts 119°
2026-05-05 14:20 60.44997 5.13308 2566 ft 150 kts 122°
2026-05-05 14:20 60.44443 5.15099 2335 ft 150 kts 127°
2026-05-05 14:20 60.43842 5.16803 2252 ft 148 kts 136°
2026-05-05 14:20 60.42992 5.17785 2193 ft 138 kts 177°
2026-05-05 14:21 60.42058 5.17825 2177 ft 134 kts 191°
2026-05-05 14:21 60.41122 5.17797 2040 ft 135 kts 184°
2026-05-05 14:21 60.40180 5.18091 1865 ft 137 kts 176°
2026-05-05 14:21 60.39250 5.18414 1701 ft 135 kts 175°
2026-05-05 14:22 60.38323 5.18769 1677 ft 141 kts 175°
2026-05-05 14:22 60.37330 5.19145 1625 ft 147 kts 176°
2026-05-05 14:22 60.36321 5.19463 1474 ft 146 kts 181°
2026-05-05 14:22 60.35307 5.19747 1180 ft 150 kts 176°
2026-05-05 14:23 60.34239 5.20125 990 ft 156 kts 173°
2026-05-05 14:23 60.33147 5.20559 799 ft 161 kts 175°
2026-05-05 14:23 60.32039 5.20909 523 ft 162 kts 175°
2026-05-05 14:23 60.30938 5.21270 324 ft 158 kts 171°
2026-05-05 14:24 60.29884 5.21637 169 ft 142 kts 171°
2026-05-05 14:24 60.29066 5.21906 162 ft 82 kts 170°
2026-05-05 14:24 60.28761 5.22011 163 ft 22 kts 171°
2026-05-05 14:24 60.28664 5.22116 162 ft 16 kts 105°
2026-05-05 14:25 60.28670 5.22253 164 ft 5 kts 79°
2026-05-05 14:25 60.28675 5.22307 164 ft 3 kts 81°
2026-05-05 14:25 60.28677 5.22340 164 ft 4 kts 81°
2026-05-05 14:25 60.28689 5.22430 165 ft 8 kts 59°
2026-05-05 14:26 60.28728 5.22483 166 ft 6 kts 32°
2026-05-05 14:26 60.28749 5.22511 167 ft 2 kts 33°
2026-05-05 14:26 60.28767 5.22535 169 ft 2 kts 34°
2026-05-05 14:26 60.28779 5.22552 170 ft 4 kts 34°
2026-05-05 14:27 60.28788 5.22564 172 ft 2 kts 34°
2026-05-05 14:27 60.28812 5.22597 173 ft 5 kts 34°
2026-05-05 14:27 60.28827 5.22617 173 ft 0 kts 34°
2026-05-05 14:27 60.28827 5.22618 173 ft 0 kts 34°
2026-05-05 14:28 60.28828 5.22620 173 ft 0 kts 34°
2026-05-05 14:28 60.28829 5.22620 173 ft 0 kts 34°
2026-05-05 14:28 60.28829 5.22621 173 ft 0 kts 34°